Погода Саран-Пауль

Погода Саран-Пауль : погода сейчас, прогноз погоды и архив. Всё, что Вы хотите узнать о погоде Саран-Пауль!

Хотите узнать прогноз погоды Саран-Пауль? Тогда Вам сюда: Погода Саран-Пауль

Поиск расширенной информации на нашем сайте:

Другие новости

Новости СМИ2

Главная страница сайта

Новости сайта

03.07.2017

Напоминаем, что на нашем специализированном сайте Метеоцентр.Азия вы можете получить высокодетализированные автоматические прогнозы погоды по пунктам России, СНГ и мира в авиационном формате (включающие направление и скорость ветра, видимость, явления погоды, количество и форму облачности, нижнюю и верхнюю границу облачности).


Погода Саран-Пауль - сегодня

Время (UTC), дата Ветер
(°,м/с) 
Видим.   Явления Облачность Т
(°С)
Тd
(°С)
f(%) Тe
(°С)
Pmin
(гПа)
dP
(гПа)
Po
(мм)
O2
(г/м3)
Тmin Tmax R s Состояние
почвы
06 09.12.17 260 (З) 10 км    10/0 средняя 
[Ac As]
-19.7 -21.9 83 -20  1018.3  0.4  761  332           
09 09.12.17 тихо ()   10 км    10/0 средняя 
[Ac lent]
-18.3 -20.4 84 -18  1018.4  0.1  761  330           
12 09.12.17 260 (З) 50000 м    8/0 средняя 
[Ac lent]
-20.4 -22.7 82 -21  1018.6  0.2  761  333           
15 09.12.17 260 (З) 50000 м    6/0 средняя 
[Ac lent]
-22 -24.2 82 -22  1018.4  -0.2  761  335    -18.3       
18 09.12.17 250 (З) 50000 м    6/0 средняя, верхняя 
[Ac lent|Ci fib]
-23.7 -25.8 83 -24  1018.6  0.1  761  338           
21 09.12.17 тихо ()   50000 м    4/0 верхняя 
[Ci fib]
-27.4 -30.4 76 -27  1019  0.3  761  343           
00 10.12.17 260 (З) 50000 м    ясно 
-27.8 -31.1 73 -28  1019.6  0.3  762  344           
03 10.12.17 280 (З) 50000 м    ясно 
-27.5 -30.6 75 -28  1020.1  0.5  762  343  -29.4      65  равномерный
сухой снег
100% 
06 10.12.17 250 (З) 20000 м    3/0 средняя 
[Ac trans]
-25.3 -27.9 79 -29  1021.1  1.1  763  341           
09 10.12.17 260 (З) 20000 м    3/0 верхняя 
[Ci fib]
-22.3 -24.9 79 -23  1022.2  1.1  764  337           
12 10.12.17 тихо ()   50000 м    3/0 верхняя 
[Ci fib]
-25.8 -28.8 76 -26  1023.4  1.3  765  342           
15 10.12.17 тихо ()   50000 м    ясно 
-27.5 -30.8 74 -28  1025.8  2.3  766  345    -21.7       
18 10.12.17 250 (З) 50000 м    ясно 
-30 -33.4 72 -31  1027.6  1.8  768  349           
21 10.12.17 тихо ()   50000 м    ясно 
-31 -34.5 71 -31  1029.5  1.8  769  352           
00 11.12.17 тихо ()   50000 м    ясно 
-30.6 -34.1 71 -31  1030.2  0.8  770  351           
03 11.12.17 110 (В) 50000 м    ясно 
-30.6 -34.2 71 -31  1031.3  1.1  770  352  -31.8      65  равномерный
сухой снег
100% 
06 11.12.17 тихо ()   20000 м    3/0 верхняя 
[Ci fib]
-29.2 -32.6 72 -29  1032.4  1.1  771  350           
09 11.12.17 тихо ()   20000 м    6/0 верхняя 
[Ci sp]
-28.2 -31.5 73 -28  1033.1  0.8  772  349           
12 11.12.17 тихо ()   50000 м    3/0 верхняя 
[Ci fib]
-30.7 -34.4 70 -31  1033.3  0.1  772  352           
15 11.12.17 тихо ()   50000 м    3/0 верхняя 
[Ci fib]
-31.8 -35.5 70 -32  1033.3  0.1  772  354    -27.8       
18 11.12.17 тихо ()   50000 м    ясно 
-32.6 -36.3 70 -33  1033.1  -0.3  772  355           
21 11.12.17 тихо ()   50000 м    ясно 
-33.3 -37.1 68 -33  1032.8  -0.3  771  356           
00 12.12.17 тихо ()   50000 м    ясно 
-33.8 -37.8 67 -34  1032.1  -0.6  771  357           
03 12.12.17 тихо ()   50000 м    ясно 
-33.5 -37.4 68 -34  1031.9  -0.3  771  356  -34.4      65  равномерный
сухой снег
100% 
06 12.12.17 тихо ()   20000 м    8/0 верхняя 
[Ci sp]
-33.3 -37.2 68 -33  1031.8  771  356           
Время (UTC), дата Ветер
(°,м/с) 
Видим.   Явления Облачность Т
(°С)
Тd
(°С)
f(%) Тe
(°С)
Pmin
(гПа)
dP
(гПа)
Po
(мм)
O2
(г/м3)
Тmin Tmax R s Состояние
почвы

Для получения пояснительной информации подведите курсор к названию столбца.

ПОГОДА Саран-Пауль - архив

Всё, что Вы хотите узнать о погоде Саран-Пауль - удобно и подробно!

Выберите нужную дату (начиная с 1 января 2015* года) и нажмите кнопку "Найти".
Будут отображены архивные сводки погоды по пункту Саран-Пауль, начиная с указанной даты.


Отображать данные в формате CSV (для использования в таблицах Excel)


Внимание! Наш архив погоды предназначен исключительно для личного некоммерческого использования в познавательных целях. Если Вам необходимы официальные справки о состоянии погоды (для производственных, юридических, коммерческих и т.п. целей), обращайтесь в органы Росгидромета.

*Примечание: данная дата относится к архиву по метеостанциям СССР (Россия, СНГ, Балтия).
Архив по метеостанциям Зарубежной Европы и Азии (кроме Китая) хранится 10 дней, по другим регионам земного шара (Китай, Африка, Америка, Австралия, Океания) - 1 день.

Саран-Пауль - район местоположения метеостанции


Название, широта, долгота, высота метеостанции:
Саран-Пауль 64.3°ш. 60.9°д. 29 м над ур. моря [Российская Федерация]

Дополнительная информация

В oтличие oт бoльшинства пoгoдных сайтoв мы публикуем пoдрoбную метеoинфoрмацию в детальнoм прoфессиoнальнoм фoрмате.

Характеристики температуры и влажнoсти вoздуха измеряются на высoте 2 м в тени вдали oт зданий и деревьев.
Скoрoсть ветра измеряется на высoте 10 м (на урoвне рoста челoвека скoрoсть ветра ниже в 1.5-2 раза). Если метеoстанция нахoдится в гoрoде или в лесу, тo скoрoсть ветра занижена на 2-4 м/с пo сравнению с oткрытым местoм. Скoрoсть ветра над акватoриями крупных рек и oзёр, а также на вершинах хoлмoв на 2-5 м/с выше, чем в oбычных услoвиях.
Атмoсфернoе давление в разных тoчках местнoсти мoжет значительнo oтличаться oт давления на метеoстанции, в зависимoсти oт услoвий рельефа (при пoдъёме на 10 м давление пoнижается примернo на 1 мм рт.ст.).